sat.trackr.live / text

‹ back to catalog

STARLINK-34435

NORAD 64602 · 2025-137J

PAYLOAD ACTIVE UNKNOWN

§ Identity

Operator
Country
US
Launch date
2025-06-25
Launch site
AFETR
Launch vehicle
Mass (kg)
RCS (m²)

Purposes: comms

External: N2YO · Heavens-Above · Gunter

§ Orbital elements

Epoch: 2026-05-24T20:22:41.871072Z

Period
94.10 min
Inclination
53.1601°
Eccentricity
0.0001172
Mean motion
15.30208223 rev/d
Perigee alt
474.4 km
Apogee alt
476.0 km
Semi-major
6,853.3 km
B*
8.0625e-4
RAAN
341.5941°
Arg perigee
83.0515°
Mean anomaly
277.0619°
Rev number
5,239

§ Raw data

STARLINK-344351 64602U 25137J   26144.84909573  .00023601  00000+0  80625-3 0  99932 64602  53.1601 341.5941 0001172  83.0515 277.0619 15.30208223 52393

JSON: /api/v1/satellites/64602 · /tle

For live sub-satellite position, see the globe view (requires WebGL).

§ Visibility from observer

Set your observer location to see the next 7 days of passes ≥ 10°. The values pass through the URL so the page stays shareable.

No JS? Fill the form by hand. The geolocation button needs JavaScript.